This demonstration page uses our WeatherBlox Daily Observations layout. Learn more.

Left ArrowRight Arrow

36.19886, -115.1175

Hourly Observations for March 26, 2017

Temp ( °F °C ) Dew Point ( °F °C ) Humidity (%) Winds ( mph kmh ) Pressure ( in mb ) Visibility ( mi km ) Precip ( " mm )
12:53 am 00:53 Clear 58 14.4 37 2.8 46 46 SE 3 6 29.99 1016 10 16 N/A
1:53 am 01:53 Clear 57 13.9 38 3.3 49 49 S 6 9 29.99 1016 10 16 N/A
2:53 am 02:53 Clear 55 12.8 39 3.9 55 55 S 5 7 29.99 1016 10 16 N/A
3:53 am 03:53 Clear 55 12.8 38 3.3 53 53 SSW 3 6 29.98 1015 10 16 N/A
4:53 am 04:53 Clear 54 12.2 39 3.9 57 57 WSW 3 6 29.99 1016 10 16 N/A
5:53 am 05:53 Clear 53 11.7 39 3.9 59 59 SW 5 7 30.01 1016 10 16 N/A
6:53 am 06:53 Sunny 54 12.2 39 3.9 57 57 WSW 5 7 30.02 1017 10 16 N/A
7:53 am 07:53 Sunny 55 12.8 39 3.9 55 55 S 6 9 30.04 1017 10 16 N/A
8:53 am 08:53 Sunny 57 13.9 37 2.8 47 47 SE 7 11 30.05 1018 10 16 N/A
9:53 am 09:53 Sunny 60 15.6 36 2.2 41 41 SSE 7 11 30.05 1018 10 16 N/A
10:53 am 10:53 Sunny 63 17.2 35 1.7 35 35 SSE 6 9 30.05 1018 10 16 N/A
11:47 am 11:47 Sunny 66 19 34 1 30 30 ESE 8 13 29.94 1014 10 16 N/A
11:53 am 11:53 Sunny 65 18.3 33 0.6 31 31 ESE 8 13 30.03 1017 10 16 N/A
12:53 pm 12:53 Sunny 68 20 32 undefined 26 26 N N/A 30.01 1016 10 16 N/A
1:53 pm 13:53 Sunny 69 20.6 33 0.6 26 26 SSE 8 13 29.98 1015 10 16 N/A
2:53 pm 14:53 Sunny 71 21.7 33 0.6 25 25 ESE 6 9 29.94 1014 10 16 N/A
3:53 pm 15:53 Sunny 72 22.2 32 undefined 23 23 ESE 8 13 29.91 1013 10 16 N/A
4:53 pm 16:53 Sunny 72 22.2 31 -0.6 22 22 VRB 7 11 29.90 1013 10 16 N/A
5:53 pm 17:53 Sunny 72 22.2 32 undefined 23 23 SE 9 15 29.89 1012 10 16 N/A
6:53 pm 18:53 Sunny 71 21.7 32 undefined 24 24 ESE 9 15 29.90 1013 10 16 N/A
7:53 pm 19:53 Clear 68 20 31 -0.6 25 25 E 6 9 29.89 1012 10 16 N/A
8:53 pm 20:53 Clear 68 20 31 -0.6 25 25 ENE 6 9 29.90 1012 10 16 N/A
9:53 pm 21:53 Clear 66 18.9 32 undefined 28 28 N N/A 29.90 1012 10 16 N/A
10:53 pm 22:53 Clear 65 18.3 31 -0.6 28 28 N N/A 29.89 1012 10 16 N/A
11:53 pm 23:53 Clear 63 17.2 30 -1.1 29 29 SSE 9 15 29.88 1012 10 16 N/A

Powered by AerisWeather